IXPE

Last updated on Thu Jul 03 2025 00:03:32 GMT+0000 (Coordinated Universal Time)

1 49954U 21121A 25183.58335648 .00007978 00000+0 47682-3 0 9999 2 49954 0.2309 72.2792 0007788 208.6099 204.0789 15.05676651 5625
UTC large
Height (km)
Speed (km/s)
/
Latitude / Longitude
Inclination (degrees)
Orbital Period (minutes)
Azimuth
Elevation
Range (km)
Doppler Factor

Next 0 passes for location: London (51.5072 / 0.1276)

Sorry there are no passes over London.